Weather in Bangor

United States     44°48′03″N   68°46′40″W
temp.,
°C
wind,
m/s
gust,
m/s
humid.,
%
clouds,
%
prec.,
mm/h
press.,
hPa
HPBL,
m
7 may, fri
fri723:00+3wnw28855 0.0 1014157
02:00+1nw248794 0.0 101470
05:000nw1188100 0.0 101512
08:00+6nnw255781 0.0 1016422
11:00+12nnw34365 0.0 10161559
14:00+15nnw23315 0.0 10142110
17:00+15nne123312 0.0 10142216
20:00+5s26745 0.0 1016136
8 may, sat
sat823:00+3s117813 0.0 101610
02:00+2ene1178100 0.0 101513
05:00+3ene2582100 0.0 1014115
08:00+7ne3670100 0.0 1015588
11:00+11ne4750100 0.0 10131737
14:00+13nne4641100 0.0 10112128
17:00+12nne3650100 0.0 10091866
20:00+6ese1175100 0.0 101119
9 may, sun
sun923:00+4s1184100 0.0 101110
02:00+5wnw1179100 0.0 101033
05:00+3w2388100 0.0 101194
08:00+7nw476592 0.0 1012601
11:00+13nnw48435 0.0 10121552
14:00+17nw473710 0.0 10102267
17:00+17w2441100 0.0 10102136
20:00+10sw3879100 0.1 1012156
10 may, mon
mon1023:00+8s2590100 0.0 1011115
02:00+7s1189100 0.0 101011
05:00+7s2287100 0.0 100854
08:00+10s2479100 0.0 1008456
11:00+10s3484100 0.3 1008590
14:00+9ssw2484100 0.3 1007490
17:00+10ssw348097 0.1 1007639
20:00+8s2593100 0.1 1007212
11 may, tue
tue1123:00+8wsw2896100 0.4 1007423
02:00+8wsw3892100 0.4 1007289
05:00+5wnw411909 0.0 1008481
08:00+7wnw496475 0.0 1009871
11:00+12wnw46387 0.0 10082151
14:00+12w5638100 0.0 10072354
17:00+10wnw574773 0.1 10071564
20:00+6wnw3862100 0.1 1008307